YZ-1 R/B, 40751

Orbit data source: Space-Track

YZ-1 R/B, 40751 is space debris originally from a launch on Sat, 25 Jul 2015 UTC launched from the Xichang Space Center, China (XSC). Debris objects in space refer to the collection of defunct objects orbiting the Earth. Examples of debris include non-operational satellites, rocket bodies, and fragments generated from explosions, collisions, or faulty payload assembly.

Loading next visibility...
Identifier
40751, 2015-037D
Orbit
Active
Country
Flag of CNCN / PRC
Related business
Manufacturer
CALT
Mission
Spacecraft
Bus & Motor
YZ-1, Unknown motor
Mass
~2,075 kg wet, ~2,075 kg dry
Launch date (UTC)
2015-07-25 (11 years ago)
Launch vehicle
Unknown
Launch site
Xichang Space Center, China (XSC)
Object type
Payload
Rocket body
Debris
Shape & HBR
Double Cone, 2.0 m
Radar Cross Section
5.890 m², Large (>1 m²)

Expand to show TLE details & history
Last TLE update: 2 days ago

TLE from 2 days ago
0 YZ-1 R/B
1 40751U 15037D   26168.40263727 -.00000101  00000-0  00000-0 0  9990
2 40751  56.3967 342.5825 1023313  75.9814 295.1882  1.56591066 62339
Epoch: 2026-06-17T09:39Z
TLE epoch observation values (Epoch: 2026-06-17T09:39:47.860Z)
Latitude
-0.00001°
Longitude
-68.04093°
Altitude
23,871.95 km
Speed
3.692 km/s
True Right ascension
22h 50m 16s
True Declination
0° 00' 00"
Sunlit
Object was in daylight at epoch
Visualization orbit readout
Latitude
Unknown
Longitude
Unknown
Altitude
Unknown
Speed
Unknown
Apparent Right ascension
Unknown
Apparent Declination
Unknown
Sunlit
N/A
Visualization observer readout
Local Sidereal Time
04:59:36
Azimuth
Unknown
Elevation
Unknown
Doppler factor
Unknown
Orbital elements
Apogee altitude
28,152.304 km
Perigee altitude
21,741.264 km
Semi-major axis
31,324.921 km
Eccentricity
0.10233
Inclination
56.3967°
RAAN
342.5825°
Arg. of periapsis
75.9814°
True anomaly
284.03871°
Mean anomaly
295.1882°
Eccentric anomaly
289.66708°
Mean motion
0.39148 °/min
Orbital period
919.59 mins
BSTAR
0
Loading maneuver chart data...
Computing Atmospheric mass density...
Loading historical data...
Loading historical data...
Loading historical data...
Loading historical data...
Loading historical data...
Loading historical data...
Loading historical data...
Other satellites on launch #37 in the year 2015 (2015-07-25 UTC)

Documentation

Showing up to 5 results
|